User: anonymous   Login
Location: Arrodets-la-Barthe
(43.0306°N, 0.2829°E)
Time: 14:36:49
(UTC+00:00)
Language:

Cosmos 2278 Rocket - Orbit

View from above orbital plane
View from above orbital plane
View from above satellite
View from above satellite

Ground track
Ground track

The orbit data is extracted from the following two-line orbital elements,

1 23088U 94023B   22023.93452188  .00000235  00000-0  14703-3 0  9996
2 23088  71.0016 352.2183 0001566  28.2077 331.9130 14.14702350433115
Epoch (UTC): 23 January 2022 22:25:42
Eccentricity: 0.0001566
inclination: 71.0016°
perigee height: 842 km
apogee height: 844 km
right ascension of ascending node: 352.2183°
argument of perigee: 28.2077°
revolutions per day: 14.14702350
mean anomaly at epoch: 331.9130°
orbit number at epoch: 43311

The dashed part of the orbit path shows where the satellite is in the earth's shadow,  

DLR